International Skating Union - Official Site

ESSENT ISU WORLD DISTANCES CHAMPIONSHIPS 2012
March 22-25, 2012

Draw | Lap Times | Index | Classification

Referee: Erik  ØSMUNDSET  (NOR)
Starter: Luigi  CASAL  (ITA)
StartTime: EndTime: Air Temp: Ice Temp: Humidity:
16:53 19:07
Result 5000m Men
Rankings as of Mar 25 2012 5:56PM
Rank: No.: Name: Nation: Time: Behind: Points:
1 45 Sven  KRAMER NED NED 6:13.87200m - 18.41 - (18.4)
600m - 46.94 - (28.5)
1000m - 1:16.19 - (29.2)
1400m - 1:45.64 - (29.4)
1800m - 2:15.34 - (29.7)
2200m - 2:44.71 - (29.3)
2600m - 3:14.50 - (29.7)
3000m - 3:44.16 - (29.6)
3400m - 4:13.86 - (29.7)
3800m - 4:43.86 - (30.0)
4200m - 5:13.37 - (29.5)
4600m - 5:43.44 - (30.0)
5000m - 6:13.87 - (30.4)
37.387
2 43 Bob  de JONG NED NED 6:15.26200m - 19.33 - (19.3)
600m - 48.86 - (29.5)
1000m - 1:19.44 - (30.5)
1400m - 1:49.73 - (30.2)
1800m - 2:19.53 - (29.8)
2200m - 2:49.02 - (29.4)
2600m - 3:18.61 - (29.5)
3000m - 3:47.95 - (29.3)
3400m - 4:17.37 - (29.4)
3800m - 4:47.10 - (29.7)
4200m - 5:16.48 - (29.3)
4600m - 5:45.79 - (29.3)
5000m - 6:15.26 - (29.4)
1.39 37.526
3 78 Jonathan  KUCK USA USA 6:16.28200m - 19.35 - (19.3)
600m - 48.81 - (29.4)
1000m - 1:17.92 - (29.1)
1400m - 1:47.24 - (29.3)
1800m - 2:16.95 - (29.7)
2200m - 2:46.54 - (29.5)
2600m - 3:16.07 - (29.5)
3000m - 3:45.89 - (29.8)
3400m - 4:15.74 - (29.8)
3800m - 4:45.53 - (29.7)
4200m - 5:15.50 - (29.9)
4600m - 5:45.71 - (30.2)
5000m - 6:16.28 - (30.6)
2.41 37.628
4 41 Jan  BLOKHUIJSEN NED NED 6:16.82200m - 18.19 - (18.1)
600m - 46.99 - (28.8)
1000m - 1:16.21 - (29.2)
1400m - 1:45.92 - (29.7)
1800m - 2:15.58 - (29.6)
2200m - 2:45.50 - (29.9)
2600m - 3:15.26 - (29.7)
3000m - 3:44.79 - (29.5)
3400m - 4:14.57 - (29.7)
3800m - 4:45.08 - (30.5)
4200m - 5:15.76 - (30.6)
4600m - 5:46.55 - (30.7)
5000m - 6:16.82 - (30.2)
2.95 37.682
5 16 Alexis  CONTIN FRA FRA 6:21.44200m - 18.97 - (18.9)
600m - 47.99 - (29.0)
1000m - 1:18.21 - (30.2)
1400m - 1:48.56 - (30.3)
1800m - 2:18.66 - (30.1)
2200m - 2:48.37 - (29.7)
2600m - 3:18.20 - (29.8)
3000m - 3:47.94 - (29.7)
3400m - 4:18.16 - (30.2)
3800m - 4:48.54 - (30.3)
4200m - 5:18.82 - (30.2)
4600m - 5:49.82 - (31.0)
5000m - 6:21.44 - (31.6)
7.57 38.144
6 71 Ivan  SKOBREV RUS RUS 6:24.05200m - 19.70 - (19.7)
600m - 49.61 - (29.9)
1000m - 1:19.54 - (29.9)
1400m - 1:49.40 - (29.8)
1800m - 2:19.81 - (30.4)
2200m - 2:50.59 - (30.7)
2600m - 3:21.56 - (30.9)
3000m - 3:52.45 - (30.8)
3400m - 4:23.14 - (30.6)
3800m - 4:53.64 - (30.5)
4200m - 5:23.93 - (30.3)
4600m - 5:54.09 - (30.1)
5000m - 6:24.05 - (29.9)
10.18 38.405
7 73 Denis  YUSKOV RUS RUS 6:24.74200m - 19.14 - (19.1)
600m - 48.71 - (29.5)
1000m - 1:18.27 - (29.5)
1400m - 1:47.82 - (29.5)
1800m - 2:17.54 - (29.7)
2200m - 2:47.24 - (29.7)
2600m - 3:17.15 - (29.9)
3000m - 3:47.45 - (30.3)
3400m - 4:18.45 - (31.0)
3800m - 4:49.67 - (31.2)
4200m - 5:21.20 - (31.5)
4600m - 5:53.21 - (32.0)
5000m - 6:24.74 - (31.5)
10.87 38.474
8 20 Patrick  BECKERT GER GER 6:26.25200m - 19.31 - (19.3)
600m - 48.80 - (29.5)
1000m - 1:18.56 - (29.7)
1400m - 1:48.64 - (30.0)
1800m - 2:18.95 - (30.3)
2200m - 2:49.32 - (30.3)
2600m - 3:19.92 - (30.6)
3000m - 3:50.77 - (30.8)
3400m - 4:22.01 - (31.2)
3800m - 4:53.11 - (31.1)
4200m - 5:24.29 - (31.1)
4600m - 5:55.30 - (31.0)
5000m - 6:26.25 - (30.9)
12.38 38.625
9 21 Moritz  GEISREITER GER GER 6:26.64200m - 19.01 - (19.0)
600m - 48.69 - (29.6)
1000m - 1:18.86 - (30.1)
1400m - 1:49.46 - (30.6)
1800m - 2:19.78 - (30.3)
2200m - 2:50.36 - (30.5)
2600m - 3:20.84 - (30.4)
3000m - 3:51.50 - (30.6)
3400m - 4:22.18 - (30.6)
3800m - 4:52.91 - (30.7)
4200m - 5:23.90 - (30.9)
4600m - 5:55.34 - (31.4)
5000m - 6:26.64 - (31.3)
12.77 38.664
10 3 Bart  SWINGS BEL BEL 6:28.07200m - 19.23 - (19.2)
600m - 49.08 - (29.8)
1000m - 1:19.47 - (30.3)
1400m - 1:49.46 - (29.9)
1800m - 2:19.69 - (30.2)
2200m - 2:50.10 - (30.4)
2600m - 3:20.78 - (30.6)
3000m - 3:51.38 - (30.6)
3400m - 4:22.31 - (30.9)
3800m - 4:53.47 - (31.1)
4200m - 5:24.91 - (31.4)
4600m - 5:56.38 - (31.4)
5000m - 6:28.07 - (31.6)
14.20 38.807
11 60 Shane  DOBBIN NZL NZL 6:28.48200m - 19.42 - (19.4)
600m - 49.38 - (29.9)
1000m - 1:19.42 - (30.0)
1400m - 1:49.90 - (30.4)
1800m - 2:20.97 - (31.0)
2200m - 2:51.98 - (31.0)
2600m - 3:22.93 - (30.9)
3000m - 3:53.86 - (30.9)
3400m - 4:24.96 - (31.1)
3800m - 4:55.75 - (30.7)
4200m - 5:26.42 - (30.6)
4600m - 5:57.38 - (30.9)
5000m - 6:28.48 - (31.1)
14.61 38.848
12 31 Dmitry  BABENKO KAZ KAZ 6:28.82200m - 18.93 - (18.9)
600m - 49.03 - (30.1)
1000m - 1:19.87 - (30.8)
1400m - 1:51.01 - (31.1)
1800m - 2:21.92 - (30.9)
2200m - 2:52.61 - (30.6)
2600m - 3:23.51 - (30.9)
3000m - 3:54.42 - (30.9)
3400m - 4:25.35 - (30.9)
3800m - 4:56.15 - (30.8)
4200m - 5:27.42 - (31.2)
4600m - 5:57.89 - (30.4)
5000m - 6:28.82 - (30.9)
14.95 38.882
13 4 Jordan  BELCHOS CAN CAN 6:30.79200m - 19.03 - (19.0)
600m - 48.34 - (29.3)
1000m - 1:18.26 - (29.9)
1400m - 1:48.56 - (30.3)
1800m - 2:19.04 - (30.4)
2200m - 2:49.54 - (30.5)
2600m - 3:20.47 - (30.9)
3000m - 3:51.69 - (31.2)
3400m - 4:23.68 - (31.9)
3800m - 4:55.99 - (32.3)
4200m - 5:27.62 - (31.6)
4600m - 5:59.16 - (31.5)
5000m - 6:30.79 - (31.6)
16.92 39.079
14 64 Jan  SZYMANSKI POL POL 6:31.16200m - 18.83 - (18.8)
600m - 48.43 - (29.6)
1000m - 1:18.70 - (30.2)
1400m - 1:49.36 - (30.6)
1800m - 2:19.78 - (30.4)
2200m - 2:50.36 - (30.5)
2600m - 3:21.25 - (30.8)
3000m - 3:52.24 - (30.9)
3400m - 4:23.28 - (31.0)
3800m - 4:54.15 - (30.8)
4200m - 5:26.08 - (31.9)
4600m - 5:59.03 - (32.9)
5000m - 6:31.16 - (32.1)
17.29 39.116
15 19 Alexej  BAUMGÄRTNER GER GER 6:32.11200m - 19.63 - (19.6)
600m - 48.89 - (29.2)
1000m - 1:19.06 - (30.1)
1400m - 1:49.15 - (30.0)
1800m - 2:19.61 - (30.4)
2200m - 2:50.28 - (30.6)
2600m - 3:21.29 - (31.0)
3000m - 3:52.54 - (31.2)
3400m - 4:24.05 - (31.5)
3800m - 4:55.51 - (31.4)
4200m - 5:27.49 - (31.9)
4600m - 5:59.79 - (32.3)
5000m - 6:32.11 - (32.3)
18.24 39.211
16 27 Hiroki  HIRAKO JPN JPN 6:32.73200m - 19.67 - (19.6)
600m - 50.00 - (30.3)
1000m - 1:20.79 - (30.7)
1400m - 1:51.69 - (30.9)
1800m - 2:22.93 - (31.2)
2200m - 2:54.09 - (31.1)
2600m - 3:25.38 - (31.2)
3000m - 3:56.52 - (31.1)
3400m - 4:27.66 - (31.1)
3800m - 4:58.96 - (31.3)
4200m - 5:30.14 - (31.1)
4600m - 6:01.35 - (31.2)
5000m - 6:32.73 - (31.3)
18.86 39.273
17 59 Sverre  LUNDE PEDERSEN NOR NOR 6:35.10200m - 19.06 - (19.0)
600m - 49.74 - (30.6)
1000m - 1:20.79 - (31.0)
1400m - 1:51.63 - (30.8)
1800m - 2:22.57 - (30.9)
2200m - 2:53.82 - (31.2)
2600m - 3:24.86 - (31.0)
3000m - 3:55.79 - (30.9)
3400m - 4:27.03 - (31.2)
3800m - 4:58.39 - (31.3)
4200m - 5:30.05 - (31.6)
4600m - 6:02.28 - (32.2)
5000m - 6:35.10 - (32.8)
21.23 39.510
18 77 Brian  HANSEN USA USA 6:37.90200m - 19.31 - (19.3)
600m - 49.63 - (30.3)
1000m - 1:20.51 - (30.8)
1400m - 1:51.71 - (31.1)
1800m - 2:23.21 - (31.5)
2200m - 2:55.00 - (31.7)
2600m - 3:26.53 - (31.5)
3000m - 3:58.41 - (31.8)
3400m - 4:30.34 - (31.9)
3800m - 5:02.22 - (31.8)
4200m - 5:34.09 - (31.8)
4600m - 6:06.29 - (32.1)
5000m - 6:37.90 - (31.6)
24.03 39.790
19 17 Ewen  FERNANDEZ FRA FRA 6:38.58200m - 18.95 - (18.9)
600m - 48.31 - (29.3)
1000m - 1:19.01 - (30.7)
1400m - 1:50.41 - (31.4)
1800m - 2:22.30 - (31.8)
2200m - 2:54.18 - (31.8)
2600m - 3:26.24 - (32.0)
3000m - 3:58.09 - (31.8)
3400m - 4:30.45 - (32.3)
3800m - 5:02.36 - (31.9)
4200m - 5:34.48 - (32.1)
4600m - 6:06.80 - (32.3)
5000m - 6:38.58 - (31.7)
24.71 39.858
20 62 Roland  CIESLAK POL POL 6:38.90200m - 20.40 - (20.4)
600m - 51.39 - (30.9)
1000m - 1:22.98 - (31.5)
1400m - 1:54.46 - (31.4)
1800m - 2:26.05 - (31.6)
2200m - 2:57.90 - (31.8)
2600m - 3:30.04 - (32.1)
3000m - 4:01.67 - (31.6)
3400m - 4:33.27 - (31.5)
3800m - 5:05.12 - (31.8)
4200m - 5:36.56 - (31.4)
4600m - 6:07.47 - (30.9)
5000m - 6:38.90 - (31.4)
25.03 39.890
21 6 Mathieu  GIROUX CAN CAN 6:42.95200m - 19.63 - (19.6)
600m - 50.48 - (30.8)
1000m - 1:21.69 - (31.2)
1400m - 1:53.34 - (31.6)
1800m - 2:24.92 - (31.5)
2200m - 2:56.71 - (31.8)
2600m - 3:28.69 - (31.9)
3000m - 4:00.66 - (31.9)
3400m - 4:32.57 - (31.9)
3800m - 5:04.80 - (32.2)
4200m - 5:37.20 - (32.4)
4600m - 6:10.15 - (32.9)
5000m - 6:42.95 - (32.8)
29.08 40.295
22 55 Kristian Reistad  FREDRIKSEN NOR NOR 6:44.96200m - 19.35 - (19.3)
600m - 50.45 - (31.0)
1000m - 1:21.78 - (31.3)
1400m - 1:52.90 - (31.1)
1800m - 2:24.14 - (31.2)
2200m - 2:55.40 - (31.2)
2600m - 3:26.82 - (31.4)
3000m - 3:58.40 - (31.5)
3400m - 4:30.43 - (32.0)
3800m - 5:03.19 - (32.7)
4200m - 5:36.71 - (33.5)
4600m - 6:10.85 - (34.1)
5000m - 6:44.96 - (34.1)
31.09 40.496
23 34 Hyung-Joon  JOO KOR KOR 6:48.67200m - 19.86 - (19.8)
600m - 50.98 - (31.1)
1000m - 1:22.69 - (31.7)
1400m - 1:54.03 - (31.3)
1800m - 2:25.75 - (31.7)
2200m - 2:57.66 - (31.9)
2600m - 3:29.88 - (32.2)
3000m - 4:02.41 - (32.5)
3400m - 4:35.53 - (33.1)
3800m - 5:08.83 - (33.3)
4200m - 5:42.11 - (33.2)
4600m - 6:15.35 - (33.2)
5000m - 6:48.67 - (33.3)
34.80 40.867
24 2 Ferre  SPRUYT BEL BEL 6:50.42200m - 19.35 - (19.3)
600m - 49.99 - (30.6)
1000m - 1:21.67 - (31.6)
1400m - 1:54.07 - (32.4)
1800m - 2:26.57 - (32.5)
2200m - 2:59.27 - (32.6)
2600m - 3:32.09 - (32.8)
3000m - 4:04.84 - (32.7)
3400m - 4:37.94 - (33.1)
3800m - 5:11.11 - (33.1)
4200m - 5:44.12 - (33.0)
4600m - 6:17.30 - (33.1)
5000m - 6:50.42 - (33.1)
36.55 41.042